EW2328 Weather Reports


Display with metric or nautical units.
time (UTC)temp
F
wind
direction
speed
MPH
gust
MPH
rain 1hr
in
rain 24hr
in
rain mn
in
humidity
%
barometer
mb
20260509012517 59 0.0 2.0 0.00 0.00 0.00 76 1010.5
20260509011517 60 338 1.0 3.0 0.00 0.00 0.00 75 1010.4
20260509010517 60 0.0 1.0 0.00 0.00 0.00 73 1010.5
20260509005537 61 293 1.0 5.0 0.00 0.00 0.00 68 1010.4
20260509004518 60 0.0 0.0 0.00 0.00 0.00 73 1009.8
20260509003518 61 0.0 0.0 0.00 0.00 0.00 72 1009.4
20260509002517 61 0.0 0.0 0.00 0.00 0.00 70 1009.6
20260509001517 61 0.0 0.0 0.00 0.00 0.00 65 1009.6
20260509000517 62 0.0 0.0 0.00 0.00 0.00 65 1009.7
20260508235517 62 0.0 0.0 0.00 0.00 0.00 69 1009.6
20260508234537 62 0.0 0.0 0.00 0.00 0.00 67 1009.6
20260508233519 62 0.0 0.0 0.00 0.00 0.00 67 1009.4
20260508232519 63 0.0 0.0 0.00 0.00 0.00 65 1009.6
20260508231519 63 0.0 0.0 0.00 0.00 0.00 60 1009.7
20260508230518 64 0.0 0.0 0.00 0.00 0.00 59 1009.5
20260508225539 64 0.0 0.0 0.00 0.00 0.00 58 1009.5
20260508224519 65 0.0 0.0 0.00 0.00 0.00 55 1009.3
20260508223519 65 0.0 0.0 0.00 0.00 0.00 54 1009.3
20260508222539 66 0.0 0.0 0.00 0.00 0.00 53 1009.3
20260508221519 66 0.0 0.0 0.00 0.00 0.00 53 1009.3
20260508220519 66 0.0 0.0 0.00 0.00 0.00 53 1009.3
20260508215519 66 0.0 1.0 0.00 0.00 0.00 53 1009.2
20260508214519 67 0.0 0.0 0.00 0.00 0.00 52 1009.2
20260508213518 67 0.0 1.0 0.00 0.00 0.00 52 1009.3
20260508212519 67 0.0 1.0 0.00 0.00 0.00 51 1009.3
20260508211519 67 0.0 1.0 0.00 0.00 0.00 52 1009.5
20260508210519 67 0.0 3.0 0.00 0.00 0.00 51 1009.5
20260508205519 67 0.0 0.0 0.00 0.00 0.00 52 1009.8
20260508204518 67 0.0 0.0 0.00 0.00 0.00 52 1010.2
20260508203519 68 0.0 2.0 0.00 0.00 0.00 54 1010.4
20260508202538 68 0.0 0.0 0.00 0.00 0.00 51 1010.6
20260508201539 68 0.0 1.0 0.00 0.00 0.00 49 1010.5
20260508200519 68 0.0 4.0 0.00 0.00 0.00 51 1010.7
20260508195520 68 0.0 3.0 0.00 0.00 0.00 50 1010.6
20260508194518 68 0.0 2.0 0.00 0.00 0.00 49 1010.9
20260508193519 68 0.0 4.0 0.00 0.00 0.00 47 1010.9
20260508192518 69 225 1.0 4.0 0.00 0.00 0.00 44 1011.0
20260508191519 70 225 1.0 4.0 0.00 0.00 0.00 44 1011.1
20260508190519 72 0.0 2.0 0.00 0.00 0.00 48 1011.1
20260508185558 71 203 2.0 9.0 0.00 0.00 0.00 51 1011.2
20260508184518 71 225 1.0 4.0 0.00 0.00 0.00 46 1011.6
20260508183518 71 225 1.0 4.0 0.00 0.00 0.00 51 1011.7
20260508182518 70 225 2.0 5.0 0.00 0.00 0.00 49 1011.9
20260508181519 69 225 1.0 5.0 0.00 0.00 0.00 45 1011.9
20260508180518 70 0.0 2.0 0.00 0.00 0.00 50 1012.4
20260508175538 69 225 1.0 3.0 0.00 0.00 0.00 48 1012.5
20260508174519 69 0.0 2.0 0.00 0.00 0.00 53 1012.6
20260508173518 67 0.0 2.0 0.00 0.00 0.00 52 1012.8
20260508172518 67 180 1.0 3.0 0.00 0.00 0.00 51 1012.9
20260508171518 68 0.0 2.0 0.00 0.00 0.00 50 1013.0
20260508170518 69 225 1.0 3.0 0.00 0.00 0.00 47 1013.2
20260508165518 69 225 1.0 4.0 0.00 0.00 0.00 49 1013.3
20260508164519 70 225 2.0 5.0 0.00 0.00 0.00 46 1013.7
20260508163518 70 203 1.0 3.0 0.00 0.00 0.00 52 1013.9
20260508162519 70 225 1.0 3.0 0.00 0.00 0.00 49 1014.1
20260508161519 70 0.0 2.0 0.00 0.00 0.00 52 1014.1
20260508160519 70 0.0 2.0 0.00 0.00 0.00 53 1014.1
20260508155519 69 203 1.0 2.0 0.00 0.00 0.00 52 1014.2
20260508154518 67 225 1.0 4.0 0.00 0.00 0.00 54 1014.3
20260508153518 68 0.0 2.0 0.00 0.00 0.00 55 1014.4
20260508152518 67 0.0 3.0 0.00 0.00 0.00 55 1014.6
20260508151518 67 0.0 2.0 0.00 0.00 0.00 55 1014.6
20260508150518 66 0.0 2.0 0.00 0.00 0.00 56 1014.6
20260508145518 65 270 1.0 5.0 0.00 0.00 0.00 56 1014.6
20260508144519 64 0.0 2.0 0.00 0.00 0.00 56 1014.6
20260508143518 63 248 1.0 3.0 0.00 0.00 0.00 57 1014.7
20260508142518 63 225 1.0 3.0 0.00 0.00 0.00 55 1014.8
20260508141518 63 0.0 2.0 0.00 0.00 0.00 56 1014.8
20260508140538 62 0.0 2.0 0.00 0.00 0.00 58 1015.0
20260508135518 61 0.0 2.0 0.00 0.00 0.00 60 1014.9
20260508134518 59 0.0 0.0 0.00 0.00 0.00 59 1014.9
20260508133518 58 0.0 6.0 0.00 0.00 0.00 61 1014.8
20260508132518 57 0.0 1.0 0.00 0.00 0.00 61 1014.8
20260508131518 57 0.0 3.0 0.00 0.00 0.00 61 1014.9
20260508130518 56 0.0 2.0 0.00 0.00 0.00 60 1014.8
20260508125538 56 0.0 1.0 0.00 0.00 0.00 65 1014.8
20260508124518 55 0.0 0.0 0.00 0.00 0.00 62 1014.7
20260508123518 54 0.0 0.0 0.00 0.00 0.00 65 1014.7
20260508122518 53 0.0 2.0 0.00 0.00 0.00 66 1014.7
20260508121518 53 0.0 3.0 0.00 0.00 0.00 68 1014.7
20260508120518 52 0.0 0.0 0.00 0.00 0.00 69 1014.7
20260508115519 51 0.0 0.0 0.00 0.00 0.00 70 1014.7
20260508114518 51 0.0 1.0 0.00 0.00 0.00 69 1014.6
20260508113518 50 0.0 0.0 0.00 0.00 0.00 71 1014.5
20260508112538 49 0.0 1.0 0.00 0.00 0.00 71 1014.4
20260508111518 49 0.0 0.0 0.00 0.00 0.00 71 1014.2
20260508110538 49 0.0 0.0 0.00 0.00 0.00 71 1014.2
20260508105538 49 0.0 0.0 0.00 0.00 0.00 71 1014.3
20260508104518 49 0.0 0.0 0.00 0.00 0.00 72 1014.3
20260508103518 48 0.0 0.0 0.00 0.00 0.00 72 1014.4
20260508102518 48 0.0 0.0 0.00 0.00 0.00 72 1014.3
20260508101518 48 0.0 0.0 0.00 0.00 0.00 74 1014.4
20260508100518 47 0.0 0.0 0.00 0.00 0.00 74 1014.2
20260508095518 47 0.0 0.0 0.00 0.00 0.00 74 1014.2
20260508094538 47 0.0 0.0 0.00 0.00 0.00 74 1014.2
20260508093518 47 0.0 0.0 0.00 0.00 0.00 76 1014.2
20260508092518 46 0.0 0.0 0.00 0.00 0.00 77 1014.3
20260508091518 46 0.0 0.0 0.00 0.00 0.00 77 1014.3
20260508090518 46 0.0 0.0 0.00 0.00 0.00 77 1014.3
20260508085518 46 0.0 0.0 0.00 0.00 0.00 75 1014.4
20260508084518 46 0.0 0.0 0.00 0.00 0.00 75 1014.4
20260508083518 45 0.0 0.0 0.00 0.00 0.00 76 1014.3
20260508082618 45 0.0 0.0 0.00 0.00 0.00 77 1014.1
20260508081538 45 0.0 0.0 0.00 0.00 0.00 75 1014.1
20260508080518 45 0.0 0.0 0.00 0.00 0.00 74 1014.0
20260508075518 46 0.0 0.0 0.00 0.00 0.00 74 1014.1
20260508074518 46 0.0 0.0 0.00 0.00 0.00 74 1014.1
20260508073518 46 0.0 0.0 0.00 0.00 0.00 73 1014.2
20260508072518 46 0.0 0.0 0.00 0.00 0.00 73 1014.1
20260508071538 46 0.0 0.0 0.00 0.00 0.00 71 1014.1
20260508070518 47 0.0 0.0 0.00 0.00 0.00 71 1014.3
20260508065518 48 0.0 0.0 0.00 0.00 0.00 70 1014.3
20260508064558 47 0.0 0.0 0.00 0.00 0.00 70 1014.3
20260508063519 47 0.0 0.0 0.00 0.00 0.00 72 1014.5
20260508062518 47 0.0 0.0 0.00 0.00 0.00 72 1014.8
20260508061518 47 0.0 0.0 0.00 0.00 0.00 71 1014.8
20260508060518 48 0.0 0.0 0.00 0.00 0.00 69 1014.7
20260508055518 48 0.0 0.0 0.00 0.00 0.00 69 1014.7
20260508054518 48 0.0 0.0 0.00 0.00 0.00 69 1014.7
20260508053518 48 0.0 0.0 0.00 0.00 0.00 69 1014.9
20260508052518 48 0.0 0.0 0.00 0.00 0.00 70 1014.9
20260508051538 48 0.0 0.0 0.00 0.00 0.00 68 1014.8
20260508050538 49 0.0 0.0 0.00 0.00 0.00 66 1014.8
20260508045518 49 0.0 1.0 0.00 0.00 0.00 65 1014.7
20260508044518 50 0.0 0.0 0.00 0.00 0.00 64 1014.7
20260508043518 50 0.0 1.0 0.00 0.00 0.00 63 1014.7
20260508042518 50 203 1.0 2.0 0.00 0.00 0.00 63 1014.7
20260508041558 50 203 1.0 2.0 0.00 0.00 0.00 63 1014.7
20260508040518 50 203 1.0 2.0 0.00 0.00 0.00 63 1014.7
20260508035537 50 203 1.0 3.0 0.00 0.00 0.00 63 1014.7
20260508034537 50 203 1.0 2.0 0.00 0.00 0.00 64 1014.6
20260508033537 50 203 1.0 2.0 0.00 0.00 0.00 64 1014.6
20260508032517 50 0.0 1.0 0.00 0.00 0.00 63 1014.6
20260508031517 51 203 1.0 3.0 0.00 0.00 0.00 63 1014.5
20260508030517 51 0.0 2.0 0.00 0.00 0.00 62 1014.6
20260508025517 51 203 2.0 4.0 0.00 0.00 0.00 63 1014.3
20260508024517 51 203 1.0 1.0 0.00 0.00 0.00 62 1014.4
20260508023517 51 0.0 0.0 0.00 0.00 0.00 63 1014.7
20260508022517 51 0.0 0.0 0.00 0.00 0.00 61 1014.6
20260508021517 52 0.0 1.0 0.00 0.00 0.00 60 1014.3
20260508020537 52 0.0 1.0 0.00 0.00 0.00 60 1014.4
20260508015517 51 0.0 1.0 0.00 0.00 0.00 60 1014.2
20260508014517 51 0.0 0.0 0.00 0.00 0.00 64 1014.3
20260508013519 51 0.0 0.0 0.00 0.00 0.00 64 1014.3